30.06.2024;16:00;90
30.06.2024;15:00;90
30.06.2024;14:00;96
30.06.2024;13:00;93
30.06.2024;12:00;91
30.06.2024;11:00;88
30.06.2024;10:00;84
30.06.2024;09:00;80
30.06.2024;08:00;81
30.06.2024;07:00;86
30.06.2024;06:00;85
30.06.2024;05:00;55
30.06.2024;04:00;24
30.06.2024;03:00;21
30.06.2024;02:00;36
30.06.2024;01:00;37
30.06.2024;00:00;31
29.06.2024;23:00;31
29.06.2024;22:00;42
29.06.2024;21:00;70
29.06.2024;20:00;83
29.06.2024;19:00;84
29.06.2024;18:00;92
29.06.2024;17:00;93
29.06.2024;16:00;92
29.06.2024;15:00;95
29.06.2024;14:00;98
29.06.2024;13:00;93
29.06.2024;12:00;78
29.06.2024;11:00;61
29.06.2024;10:00;48
29.06.2024;09:00;31
29.06.2024;08:00;15
29.06.2024;07:00;6
29.06.2024;06:00;3
29.06.2024;05:00;5
29.06.2024;04:00;7
29.06.2024;03:00;13
29.06.2024;02:00;15
29.06.2024;01:00;21
29.06.2024;00:00;29
28.06.2024;23:00;40
28.06.2024;22:00;61
28.06.2024;21:00;86
28.06.2024;20:00;99
28.06.2024;19:00;103
28.06.2024;18:00;104
28.06.2024;17:00;104
